FW0441 Weather Reports


time (UTC)temp
C
wind
direction
speed
KPH
gust
KPH
rain 1hr
cm
rain 24hr
cm
rain mn
cm
humidity
%
barometer
mb
20260502233439 18 287 1.6 9.7 0.00 0.00 0.00 36 1010.0
20260502232941 18 286 3.2 9.7 0.00 0.00 0.00 34 1010.1
20260502232711 18 218 3.2 8.0 0.00 0.00 0.00 35 1010.0
20260502231938 18 209 3.2 8.0 0.00 0.00 0.00 34 1010.0
20260502231439 18 195 1.6 4.8 0.00 0.00 0.00 35 1010.3
20260502231208 18 194 3.2 9.7 0.00 0.00 0.00 35 1010.1
20260502230437 18 194 3.2 9.7 0.00 0.00 0.00 35 1010.1
20260502225937 18 200 1.6 6.4 0.00 0.00 0.00 33 1010.3
20260502225438 18 202 1.6 4.8 0.00 0.00 0.00 33 1010.2
20260502225207 18 202 1.6 4.8 0.00 0.00 0.00 34 1010.4
20260502224435 18 202 1.6 4.8 0.00 0.00 0.00 35 1010.4
20260502223936 18 202 1.6 4.8 0.00 0.00 0.00 34 1010.4
20260502223434 18 202 1.6 4.8 0.00 0.00 0.00 33 1010.4
20260502222932 18 200 3.2 9.7 0.00 0.00 0.00 34 1010.5
20260502222431 18 200 3.2 9.7 0.00 0.00 0.00 32 1010.5
20260502221931 18 227 1.6 4.8 0.00 0.00 0.00 34 1010.6
20260502221431 18 229 1.6 4.8 0.00 0.00 0.00 33 1010.5
20260502220932 18 248 1.6 8.0 0.00 0.00 0.00 34 1010.6
20260502220432 18 210 1.6 8.0 0.00 0.00 0.00 34 1010.6
20260502215929 18 224 3.2 6.4 0.00 0.00 0.00 33 1010.6
20260502215429 18 267 3.2 9.7 0.00 0.00 0.00 33 1010.6
20260502214929 18 238 4.8 11.3 0.00 0.00 0.00 33 1010.6
20260502214427 18 302 4.8 14.5 0.00 0.00 0.00 32 1010.7
20260502213927 18 219 4.8 14.5 0.00 0.00 0.00 33 1010.8
20260502213429 18 273 3.2 11.3 0.00 0.00 0.00 33 1010.9
20260502212927 18 246 3.2 6.4 0.00 0.00 0.00 33 1011.0
20260502212658 18 286 4.8 16.1 0.00 0.00 0.00 33 1011.0
20260502211925 18 196 3.2 16.1 0.00 0.00 0.00 32 1011.2
20260502211425 18 215 3.2 12.9 0.00 0.00 0.00 33 1011.1
20260502210925 18 284 4.8 12.9 0.00 0.00 0.00 32 1011.2
20260502210425 18 296 4.8 14.5 0.00 0.00 0.00 34 1011.4
20260502205925 18 171 6.4 16.1 0.00 0.00 0.00 33 1011.6
20260502205424 18 224 6.4 20.9 0.00 0.00 0.00 33 1011.7
20260502205155 18 204 4.8 20.9 0.00 0.00 0.00 33 1011.6
20260502204425 18 190 4.8 14.5 0.00 0.00 0.00 32 1011.9
20260502204156 18 230 4.8 14.5 0.00 0.00 0.00 33 1011.8
20260502203423 18 207 4.8 14.5 0.00 0.00 0.00 32 1012.0
20260502202924 18 219 4.8 14.5 0.00 0.00 0.00 33 1012.3
20260502202423 18 223 4.8 17.7 0.00 0.00 0.00 33 1012.5
20260502201922 18 271 6.4 17.7 0.00 0.00 0.00 33 1012.5
20260502201421 18 202 6.4 17.7 0.00 0.00 0.00 35 1012.5
20260502200922 18 194 6.4 16.1 0.00 0.00 0.00 32 1012.6
20260502200421 18 213 6.4 16.1 0.00 0.00 0.00 34 1013.0
20260502195921 18 211 4.8 16.1 0.00 0.00 0.00 32 1012.8
20260502195422 17 201 4.8 11.3 0.00 0.00 0.00 35 1013.0
20260502194921 17 194 6.4 19.3 0.00 0.00 0.00 32 1013.1
20260502194421 17 224 8.0 19.3 0.00 0.00 0.00 33 1013.2
20260502193921 17 178 8.0 17.7 0.00 0.00 0.00 33 1013.2
20260502193421 17 168 8.0 17.7 0.00 0.00 0.00 32 1013.3
20260502192921 17 194 6.4 16.1 0.00 0.00 0.00 32 1013.4
20260502192424 17 196 4.8 11.3 0.00 0.00 0.00 36 1013.7
20260502192419 17 304 4.8 11.3 0.00 0.00 0.00 33 1013.5
20260502191418 16 199 6.4 22.5 0.00 0.00 0.00 36 1013.8
20260502190920 16 190 6.4 22.5 0.00 0.00 0.00 35 1013.9
20260502190417 16 210 4.8 12.9 0.00 0.00 0.00 36 1014.1
20260502185918 16 205 6.4 20.9 0.00 0.00 0.00 35 1014.2
20260502185417 16 226 6.4 20.9 0.00 0.00 0.00 34 1014.3
20260502184918 16 187 4.8 20.9 0.00 0.00 0.00 33 1014.3
20260502184418 16 189 4.8 11.3 0.00 0.00 0.00 34 1014.4
20260502183920 16 314 4.8 14.5 0.00 0.00 0.00 34 1014.5
20260502183916 16 269 3.2 14.5 0.00 0.00 0.00 36 1014.4
20260502183144 16 183 4.8 11.3 0.00 0.00 0.00 35 1014.5
20260502183035 16 243 4.8 16.1 0.00 0.00 0.00 34 1014.6
20260502181910 16 186 4.8 16.1 0.00 0.00 0.00 34 1014.8
20260502181412 16 221 4.8 11.3 0.00 0.00 0.00 35 1014.7
20260502180911 16 286 4.8 11.3 0.00 0.00 0.00 36 1014.9
20260502180642 15 281 4.8 12.9 0.00 0.00 0.00 34 1014.9
20260502170408 15 111 3.2 12.9 0.00 0.00 0.00 39 1015.8
20260502163907 13 223 6.4 17.7 0.00 0.00 0.00 35 1016.2
20260502163407 14 203 4.8 14.5 0.00 0.00 0.00 37 1016.2
20260502163138 14 178 3.2 8.0 0.00 0.00 0.00 37 1016.3
20260502162408 14 225 3.2 8.0 0.00 0.00 0.00 37 1016.3
20260502162138 13 242 4.8 14.5 0.00 0.00 0.00 37 1016.4
20260502161637 13 215 4.8 16.1 0.00 0.00 0.00 41 1016.5
20260502160907 13 194 4.8 16.1 0.00 0.00 0.00 36 1016.6
20260502160406 13 199 4.8 12.9 0.00 0.00 0.00 40 1016.6
20260502160138 13 243 6.4 12.9 0.00 0.00 0.00 39 1016.7
20260502151912 12 265 3.2 9.7 0.00 0.00 0.00 44 1017.2
20260502151908 12 219 4.8 9.7 0.00 0.00 0.00 43 1017.1
20260502150908 12 304 3.2 4.8 0.00 0.00 0.00 47 1017.2
20260502150407 11 209 3.2 6.4 0.00 0.00 0.00 45 1017.4
20260502150403 11 225 3.2 6.4 0.00 0.00 0.00 47 1017.2
20260502130352 3 26 0.0 3.2 0.00 0.00 0.00 89 1017.9
20260502130125 3 26 0.0 3.2 0.00 0.00 0.00 91 1017.9
20260502123352 1 26 0.0 0.0 0.00 0.00 0.00 93 1017.8
20260502122851 1 26 0.0 0.0 0.00 0.00 0.00 93 1017.8
20260502122351 0 26 0.0 0.0 0.00 0.00 0.00 93 1017.8
20260502122123 0 26 0.0 0.0 0.00 0.00 0.00 92 1017.8
20260502121621 0 26 0.0 0.0 0.00 0.00 0.00 92 1017.8
20260502120851 0 26 0.0 0.0 0.00 0.00 0.00 92 1017.6
20260502120350 0 26 0.0 0.0 0.00 0.00 0.00 92 1017.7
20260502115850 0 26 0.0 0.0 0.00 0.00 0.00 92 1017.7
20260502115351 0 26 0.0 0.0 0.00 0.00 0.00 92 1017.7
20260502114852 0 26 0.0 0.0 0.00 0.00 0.00 92 1017.8
20260502114623 0 26 0.0 0.0 0.00 0.00 0.00 91 1017.8
20260502114121 0 26 0.0 0.0 0.00 0.00 0.00 91 1017.8
20260502113349 0 26 0.0 0.0 0.00 0.00 0.00 91 1017.9
20260502112847 0 26 0.0 0.0 0.00 0.00 0.00 91 1017.7
20260502112620 0 26 0.0 0.0 0.00 0.00 0.00 91 1017.7
20260502111849 0 26 0.0 0.0 0.00 0.00 0.00 91 1017.6
20260502111349 0 26 0.0 0.0 0.00 0.00 0.00 91 1017.5
20260502110849 0 26 0.0 0.0 0.00 0.00 0.00 90 1017.6
20260502110349 0 26 0.0 0.0 0.00 0.00 0.00 90 1017.5
20260502105849 0 26 0.0 0.0 0.00 0.00 0.00 90 1017.4
20260502105619 0 26 0.0 0.0 0.00 0.00 0.00 90 1017.6
20260502104845 0 26 0.0 0.0 0.00 0.00 0.00 90 1017.5
20260502104347 0 26 0.0 0.0 0.00 0.00 0.00 90 1017.6
20260502103845 0 26 0.0 0.0 0.00 0.00 0.00 90 1017.6
20260502103348 0 26 0.0 0.0 0.00 0.00 0.00 90 1017.6
20260502102847 0 26 0.0 0.0 0.00 0.00 0.00 90 1017.5
20260502102346 0 26 0.0 0.0 0.00 0.00 0.00 89 1017.6
20260502101845 0 26 0.0 0.0 0.00 0.00 0.00 89 1017.7
20260502101618 0 26 0.0 0.0 0.00 0.00 0.00 89 1017.6
20260502100846 0 26 0.0 0.0 0.00 0.00 0.00 89 1017.5
20260502100345 0 26 0.0 0.0 0.00 0.00 0.00 89 1017.6
20260502091345 0 26 0.0 0.0 0.00 0.00 0.00 89 1017.4
20260502090843 0 26 0.0 0.0 0.00 0.00 0.00 89 1017.4
20260502090343 0 26 0.0 0.0 0.00 0.00 0.00 90 1017.4
20260502071341 1 26 0.0 0.0 0.00 0.00 0.00 87 1017.5
20260502071109 1 26 0.0 0.0 0.00 0.00 0.00 86 1017.5
20260502070607 1 26 0.0 0.0 0.00 0.00 0.00 86 1017.6
20260502065837 1 26 0.0 0.0 0.00 0.00 0.00 86 1017.5
20260502065336 1 26 0.0 0.0 0.00 0.00 0.00 85 1017.6
20260502064835 1 26 0.0 0.0 0.00 0.00 0.00 86 1017.6
20260502064604 1 26 0.0 0.0 0.00 0.00 0.00 85 1017.6
20260502063835 1 26 0.0 0.0 0.00 0.00 0.00 85 1017.8
20260502063605 1 26 0.0 0.0 0.00 0.00 0.00 85 1017.8
20260502062835 1 26 0.0 0.0 0.00 0.00 0.00 85 1017.8
20260502062334 2 26 0.0 0.0 0.00 0.00 0.00 85 1017.8
20260502062105 2 26 0.0 0.0 0.00 0.00 0.00 85 1017.8
20260502061334 2 26 0.0 0.0 0.00 0.00 0.00 85 1017.8
20260502060833 1 26 0.0 0.0 0.00 0.00 0.00 84 1018.0
20260502060338 1 26 0.0 0.0 0.00 0.00 0.00 83 1017.9
20260502060334 1 26 0.0 0.0 0.00 0.00 0.00 83 1017.9
20260502055337 2 26 0.0 0.0 0.00 0.00 0.00 83 1018.0
20260502055333 2 26 0.0 0.0 0.00 0.00 0.00 83 1017.7
20260502054331 2 26 0.0 0.0 0.00 0.00 0.00 83 1017.9
20260502053830 2 26 0.0 0.0 0.00 0.00 0.00 82 1018.0
20260502053330 2 26 0.0 0.0 0.00 0.00 0.00 82 1018.0
20260502053102 2 26 0.0 0.0 0.00 0.00 0.00 82 1017.8
20260502052601 2 26 0.0 0.0 0.00 0.00 0.00 82 1017.8
20260502051835 2 26 0.0 0.0 0.00 0.00 0.00 83 1017.9
20260502051830 2 26 0.0 0.0 0.00 0.00 0.00 83 1017.8
20260502050829 2 26 0.0 0.0 0.00 0.00 0.00 83 1017.9
20260502050600 2 26 0.0 0.0 0.00 0.00 0.00 82 1017.9
20260502050058 2 26 0.0 0.0 0.00 0.00 0.00 81 1018.0
20260502045328 2 26 0.0 0.0 0.00 0.00 0.00 81 1017.9
20260502044829 2 26 0.0 0.0 0.00 0.00 0.00 81 1018.0
20260502044328 3 26 0.0 0.0 0.00 0.00 0.00 81 1018.0
20260502043828 3 26 0.0 0.0 0.00 0.00 0.00 80 1017.8
20260502043328 3 26 0.0 0.0 0.00 0.00 0.00 79 1017.9
20260502042828 3 26 0.0 0.0 0.00 0.00 0.00 79 1018.0
20260502042329 3 26 0.0 0.0 0.00 0.00 0.00 79 1018.0
20260502041827 3 26 0.0 0.0 0.00 0.00 0.00 78 1018.0
20260502041327 3 26 0.0 0.0 0.00 0.00 0.00 78 1018.0
20260502040826 3 26 0.0 0.0 0.00 0.00 0.00 77 1018.2
20260502040326 3 26 0.0 0.0 0.00 0.00 0.00 77 1018.1
20260502035826 3 26 0.0 0.0 0.00 0.00 0.00 76 1018.1
20260502034825 4 26 0.0 0.0 0.00 0.00 0.00 75 1018.1
20260502034324 4 26 0.0 0.0 0.00 0.00 0.00 74 1018.2
20260502033823 4 26 0.0 0.0 0.00 0.00 0.00 70 1018.2
20260502033326 4 26 0.0 0.0 0.00 0.00 0.00 70 1018.2
20260502033058 5 26 0.0 0.0 0.00 0.00 0.00 70 1018.1
20260502032324 5 26 0.0 0.0 0.00 0.00 0.00 70 1018.2
20260502032054 5 26 0.0 0.0 0.00 0.00 0.00 68 1018.1
20260502031553 5 26 0.0 0.0 0.00 0.00 0.00 64 1018.2
20260502030821 5 26 0.0 0.0 0.00 0.00 0.00 64 1018.2
20260502030321 5 26 0.0 0.0 0.00 0.00 0.00 64 1018.2
20260502030055 5 26 0.0 0.0 0.00 0.00 0.00 65 1018.3
20260502025554 5 26 0.0 0.0 0.00 0.00 0.00 63 1018.2
20260502024822 6 26 0.0 0.0 0.00 0.00 0.00 62 1018.1
20260502024321 6 26 0.0 0.0 0.00 0.00 0.00 64 1018.0
20260502023819 6 26 0.0 0.0 0.00 0.00 0.00 64 1018.0
20260502023321 6 26 0.0 0.0 0.00 0.00 0.00 58 1018.1
20260502022825 7 26 0.0 0.0 0.00 0.00 0.00 57 1018.0
20260502022819 7 26 0.0 0.0 0.00 0.00 0.00 61 1018.1
20260502021821 7 26 0.0 0.0 0.00 0.00 0.00 54 1018.0
20260502021320 8 26 0.0 0.0 0.00 0.00 0.00 53 1018.0
20260502020819 8 26 0.0 0.0 0.00 0.00 0.00 48 1017.9
20260502020321 8 26 0.0 0.0 0.00 0.00 0.00 47 1017.9
20260502015821 8 26 0.0 0.0 0.00 0.00 0.00 44 1017.8
20260502015551 8 26 0.0 0.0 0.00 0.00 0.00 42 1017.8
20260502015051 9 26 0.0 0.0 0.00 0.00 0.00 40 1017.8
20260502014551 9 26 0.0 0.0 0.00 0.00 0.00 40 1017.7
20260502013821 9 26 0.0 0.0 0.00 0.00 0.00 41 1017.5
20260502013319 10 26 0.0 0.0 0.00 0.00 0.00 41 1017.5
20260502012821 10 26 0.0 0.0 0.00 0.00 0.00 40 1017.6
20260502012557 10 26 0.0 3.2 0.00 0.00 0.00 38 1017.5
20260502012319 10 26 0.0 1.6 0.00 0.00 0.00 39 1017.5
20260502011319 10 26 1.6 3.2 0.00 0.00 0.00 38 1017.5
20260502011055 10 26 0.0 3.2 0.00 0.00 0.00 38 1017.5
20260502010819 10 26 1.6 3.2 0.00 0.00 0.00 39 1017.5
20260502010051 10 26 0.0 1.6 0.00 0.00 0.00 39 1017.5
20260502005550 11 26 1.6 1.6 0.00 0.00 0.00 36 1017.5
20260502005051 11 26 1.6 3.2 0.00 0.00 0.00 37 1017.4
20260502004319 11 26 1.6 3.2 0.00 0.00 0.00 37 1017.5
20260502003819 11 26 1.6 4.8 0.00 0.00 0.00 36 1017.4
20260502003318 11 26 1.6 4.8 0.00 0.00 0.00 37 1017.5
20260502002819 11 26 3.2 6.4 0.00 0.00 0.00 39 1017.5
20260502002322 11 26 1.6 3.2 0.00 0.00 0.00 36 1017.4
20260502002318 11 26 3.2 6.4 0.00 0.00 0.00 40 1017.4
20260502001320 11 26 1.6 3.2 0.00 0.00 0.00 36 1017.3
20260502001316 11 26 1.6 3.2 0.00 0.00 0.00 36 1017.4
20260502000317 11 26 1.6 6.4 0.00 0.00 0.00 34 1017.3
20260501235813 11 26 4.8 11.3 0.00 0.00 0.00 34 1017.3
20260501235312 11 26 3.2 11.3 0.00 0.00 0.00 32 1017.3
20260501234812 11 20 1.6 11.3 0.00 0.00 0.00 35 1017.4
20260501234312 11 19 1.6 4.8 0.00 0.00 0.00 34 1017.4
20260501234048 11 17 4.8 12.9 0.00 0.00 0.00 33 1017.4